Weather History for Windsor Locks, CT

Change the Weather History Date:

Tuesday, November 15, 2011

  Actual Average Record
Temperature  
Mean Temperature 59 °F 43 °F  
Max Temperature 65 °F 52 °F 78 °F (1993)
Min Temperature 52 °F 34 °F 17 °F (1933)
Degree Days  
Heating Degree Days 6 22  
Month to date heating degree days 267 301  
Since 1 July heating degree days 676 830  
Cooling Degree Days 0 0  
Month to date cooling degree days 0 0  
Year to date cooling degree days 935 756  
Growing Degree Days 10 (Base 50)    
Moisture  
Dew Point 50 °F    
Average Humidity 66    
Maximum Humidity 83    
Minimum Humidity 48    
Precipitation  
Precipitation T in 0.13 in 0.99 in (1906)
Month to date precipitation 0.44 1.89  
Year to date precipitation 60.86 40.41  
Snow  
Snow 0.00 in 0.00 in 5.20 in (1906)
Month to date snowfall 0.0 0.6  
Since 1 July snowfall T 0.6  
Since 1 September snowfall T 0.6  
Snow Depth 0.00 in    
Sea Level Pressure  
Sea Level Pressure 29.82 in    
Wind  
Wind Speed 6 mph (SSW)    
Max Wind Speed 22 mph    
Max Gust Speed 28 mph    
Visibility 10 miles    
Events Rain    
T = Trace of Precipitation, MM = Missing Value Source: NWS Daily Summary

Daily Weather History Graph

Daily Weather History Graph

Search for Another Location

Airport:

Trip Planner

Search our weather history database for the weather conditions in past years. The results will help you decide how hot, cold, wet, or windy it might be!

Date:

Astronomy

Nov. 15, 2011 Rise Set
Actual Time 6:40 AM EST 4:30 PM EST
Civil Twilight 6:10 AM EST 4:59 PM EST
Nautical Twilight 5:36 AM EST 5:33 PM EST
Astronomical Twilight 5:03 AM EST 6:06 PM EST
Moon 8:35 PM EST (11/15) 10:38 AM EST (11/15)
Length of Visible Light 10h 49m
Length of Day
9h 49m
Waning Gibbous, 79% of the Moon is Illuminated
Nov 15
Waning Gibbous
Nov 18
Last Quarter
Nov 25
New
Dec 2
First Quarter
Dec 10
Full

Hourly Weather History & Observations

Time (EST) Temp. Dew Point Humidity Pressure Visibility Wind Dir Wind Speed Gust Speed Precip Events Conditions
12:51 AM 57.9 °F 52.0 °F 81% 29.73 in 10.0 mi SSE 3.5 mph - N/A   Overcast
1:51 AM 57.0 °F 52.0 °F 83% 29.73 in 10.0 mi SSE 10.4 mph - N/A   Overcast
2:51 AM 57.0 °F 52.0 °F 83% 29.72 in 10.0 mi South 6.9 mph - N/A   Overcast
3:51 AM 57.9 °F 52.0 °F 81% 29.70 in 10.0 mi South 8.1 mph - N/A   Overcast
4:51 AM 57.9 °F 51.1 °F 78% 29.70 in 10.0 mi South 9.2 mph - N/A   Overcast
5:51 AM 57.9 °F 51.1 °F 78% 29.67 in 10.0 mi SSE 13.8 mph - N/A   Overcast
6:51 AM 59.0 °F 51.1 °F 75% 29.74 in 10.0 mi SW 9.2 mph - N/A   Overcast
7:51 AM 59.0 °F 51.8 °F 77% 29.76 in 10.0 mi South 9.2 mph - N/A   Overcast
8:51 AM 61.0 °F 51.1 °F 70% 29.75 in 10.0 mi South 6.9 mph - N/A   Mostly Cloudy
9:51 AM 63.0 °F 51.1 °F 65% 29.75 in 10.0 mi South 5.8 mph - N/A   Mostly Cloudy
10:51 AM 64.0 °F 46.9 °F 54% 29.78 in 10.0 mi West 13.8 mph 19.6 mph N/A   Mostly Cloudy
11:51 AM 64.0 °F 45.0 °F 50% 29.80 in 10.0 mi West 18.4 mph - N/A   Mostly Cloudy
12:51 PM 62.1 °F 46.9 °F 58% 29.81 in 10.0 mi West 11.5 mph - 0.00 in   Overcast
1:51 PM 62.1 °F 48.0 °F 60% 29.81 in 10.0 mi NW 4.6 mph - N/A   Overcast
2:51 PM 62.1 °F 50.0 °F 65% 29.82 in 10.0 mi WNW 5.8 mph - N/A   Overcast
3:51 PM 60.1 °F 50.0 °F 69% 29.86 in 10.0 mi North 6.9 mph - N/A   Overcast
4:51 PM 57.9 °F 48.9 °F 72% 29.86 in 10.0 mi North 3.5 mph - N/A   Overcast
5:51 PM 57.0 °F 50.0 °F 77% 29.88 in 10.0 mi Calm Calm - N/A   Overcast
6:45 PM 57.2 °F 48.2 °F 72% 29.91 in 10.0 mi Calm Calm - N/A   Overcast
6:51 PM 57.9 °F 48.9 °F 72% 29.91 in 10.0 mi Calm Calm - 0.00 in Rain Light Rain
7:03 PM 57.2 °F 50.0 °F 77% 29.92 in 10.0 mi Calm Calm - 0.00 in   Overcast
7:51 PM 55.9 °F 50.0 °F 80% 29.92 in 10.0 mi Calm Calm - 0.00 in   Overcast
8:19 PM 57.2 °F 50.0 °F 77% 29.93 in 10.0 mi Calm Calm - N/A   Overcast
8:51 PM 55.0 °F 50.0 °F 83% 29.93 in 10.0 mi Calm Calm - N/A   Overcast
9:51 PM 55.0 °F 50.0 °F 83% 29.93 in 10.0 mi SE 3.5 mph - N/A   Overcast
10:51 PM 55.0 °F 50.0 °F 83% 29.94 in 10.0 mi Calm Calm - 0.00 in   Overcast
11:51 PM 53.1 °F 50.0 °F 89% 29.94 in 10.0 mi Calm Calm - N/A   Overcast